Saint George Island, AK

7:28 AM HDT on September 27, 2016 (GMT -0900)
Saint George

Weather History for PAPB - October, 2012

Change the Weather History Date:

Monday, October 1, 2012

  Actual Average Record
Temperature  
Mean Temperature 43 °F -  
Max Temperature 44 °F 44 °F 51 °F (2014)
Min Temperature 42 °F 37 °F 30 °F (2005)
Degree Days  
Heating Degree Days 22    
Moisture  
Dew Point 43 °F    
Average Humidity 94    
Maximum Humidity 100    
Minimum Humidity 93    
Precipitation  
Precipitation 0.61 in - - ()
Sea Level Pressure  
Sea Level Pressure 29.60 in    
Wind  
Wind Speed 21 mph (South)    
Max Wind Speed 29 mph    
Max Gust Speed 40 mph    
Visibility 5 miles    
Events Rain    
Averages and records for this station are not official NWS values.
T = Trace of Precipitation, MM = Missing Value Source: NWS Daily Summary

Daily Weather History Graph

Daily Weather History Graph

Search for Another Location

Airport or City:

Trip Planner

Search our weather history database for the weather conditions in past years. The results will help you decide how hot, cold, wet, or windy it might be!

Date:

Astronomy

Oct. 01, 2012 Rise Set
Actual Time 9:23 AM AKDT 8:51 PM AKDT
Civil Twilight 8:45 AM AKDT 9:28 PM AKDT
Nautical Twilight 8:01 AM AKDT 10:12 PM AKDT
Astronomical Twilight 7:16 AM AKDT 10:58 PM AKDT
Moon 9:02 PM AKDT (10/1) 11:36 AM AKDT (10/1)
Length of Visible Light 12h 42m
Length of Day
11h 27m
Full, 97% of the Moon is Illuminated
Oct 1
Full
Oct 7
Last Quarter
Oct 15
New
Oct 21
First Quarter
Oct 29
Full

Hourly Weather History & Observations

Time (AKDT) Temp. Windchill Dew Point Humidity Pressure Visibility Wind Dir Wind Speed Gust Speed Precip Events Conditions
12:10 AM 44.6 °F 36.1 °F 42.8 °F 93% 29.67 in 6.0 mi SSW 21.9 mph - 0.01 in Rain Light Rain
12:20 AM 44.6 °F 36.6 °F 44.6 °F 100% 29.67 in 4.0 mi SSW 19.6 mph 27.6 mph 0.02 in Rain Light Rain
12:53 AM 44.1 °F 35.7 °F 43.0 °F 96% 29.64 in 4.0 mi SSW 20.7 mph - 0.03 in Rain Light Rain
1:53 AM 44.1 °F 34.6 °F 43.0 °F 96% 29.64 in 6.0 mi SSW 26.5 mph - 0.02 in Rain Light Rain
2:53 AM 44.1 °F 35.4 °F 43.0 °F 96% 29.63 in 4.0 mi South 21.9 mph 32.2 mph 0.01 in Rain Light Rain
3:50 AM 44.6 °F 35.5 °F 42.8 °F 93% 29.65 in 5.0 mi SSW 25.3 mph 38.0 mph 0.02 in Rain Light Rain
3:53 AM 44.1 °F 34.8 °F 43.0 °F 96% 29.62 in 5.0 mi SSW 25.3 mph 38.0 mph 0.02 in Rain Light Rain
4:11 AM 44.6 °F 35.5 °F 42.8 °F 93% 29.65 in 4.0 mi SSW 25.3 mph 35.7 mph 0.01 in Rain Light Rain
4:53 AM 44.1 °F 34.6 °F 43.0 °F 96% 29.62 in 4.0 mi SSW 26.5 mph 35.7 mph 0.02 in Rain Light Rain
5:53 AM 44.1 °F 34.4 °F 43.0 °F 96% 29.62 in 4.0 mi South 27.6 mph 32.2 mph 0.01 in   Overcast
6:42 AM 44.6 °F 35.9 °F 42.8 °F 93% 29.65 in 5.0 mi South 23.0 mph 33.4 mph 0.00 in   Overcast
6:53 AM 44.1 °F 34.8 °F 42.1 °F 93% 29.62 in 5.0 mi South 25.3 mph 32.2 mph 0.00 in   Overcast
7:23 AM 44.6 °F 35.7 °F 42.8 °F 93% 29.65 in 4.0 mi South 24.2 mph 29.9 mph 0.01 in Rain Light Rain
7:53 AM 44.1 °F 35.0 °F 43.0 °F 96% 29.61 in 4.0 mi South 24.2 mph 31.1 mph 0.02 in Rain Light Rain
8:53 AM 44.1 °F 35.0 °F 43.0 °F 96% 29.61 in 5.0 mi South 24.2 mph 32.2 mph 0.01 in Rain Light Rain
9:53 AM 44.1 °F 35.2 °F 42.1 °F 93% 29.61 in 5.0 mi South 23.0 mph 34.5 mph 0.01 in Rain Light Rain
10:41 AM 44.6 °F 34.9 °F 42.8 °F 93% 29.64 in 5.0 mi South 28.8 mph 40.3 mph 0.02 in Rain Light Rain
10:53 AM 44.1 °F 35.0 °F 43.0 °F 96% 29.61 in 4.0 mi South 24.2 mph 35.7 mph 0.03 in Rain Light Rain
11:00 AM 44.6 °F 36.4 °F 42.8 °F 93% 29.65 in 3.0 mi South 20.7 mph 29.9 mph 0.00 in Rain Light Rain
11:53 AM 44.1 °F 35.9 °F 43.0 °F 96% 29.62 in 3.0 mi South 19.6 mph 32.2 mph 0.02 in Rain Light Rain
12:02 PM 44.6 °F 36.1 °F 42.8 °F 93% 29.65 in 4.0 mi South 21.9 mph 28.8 mph 0.01 in Rain Light Rain
12:22 PM 44.6 °F 35.5 °F 42.8 °F 93% 29.65 in 5.0 mi South 25.3 mph 32.2 mph 0.01 in Rain Light Rain
12:29 PM 44.6 °F 35.9 °F 42.8 °F 93% 29.65 in 4.0 mi South 23.0 mph 32.2 mph 0.02 in Rain Light Rain
12:53 PM 44.1 °F 35.4 °F 43.0 °F 96% 29.62 in 4.0 mi South 21.9 mph 28.8 mph 0.03 in Rain Light Rain
1:03 PM 44.6 °F 36.4 °F 42.8 °F 93% 29.65 in 4.0 mi South 20.7 mph 27.6 mph 0.00 in Rain Light Rain
1:47 PM 44.6 °F 36.4 °F 42.8 °F 93% 29.64 in 5.0 mi South 20.7 mph - 0.03 in Rain Light Rain
1:53 PM 44.1 °F 36.2 °F 43.0 °F 96% 29.62 in 5.0 mi South 18.4 mph - 0.03 in Rain Light Rain
2:53 PM 44.1 °F 35.7 °F 43.0 °F 96% 29.61 in 4.0 mi South 20.7 mph - 0.03 in Rain Light Rain
3:05 PM 44.6 °F 36.1 °F 42.8 °F 93% 29.64 in 4.0 mi South 21.9 mph - 0.02 in Rain Rain
3:53 PM 44.1 °F 35.4 °F 42.1 °F 93% 29.59 in 4.0 mi South 21.9 mph 29.9 mph 0.06 in Rain Light Rain
4:03 PM 44.6 °F 36.4 °F 42.8 °F 93% 29.62 in 5.0 mi South 20.7 mph 29.9 mph 0.00 in Rain Light Rain
4:43 PM 44.6 °F 38.1 °F 42.8 °F 93% 29.62 in 3.0 mi South 13.8 mph 25.3 mph 0.05 in Rain Rain
4:53 PM 44.1 °F 36.5 °F 43.0 °F 96% 29.59 in 4.0 mi South 17.3 mph - 0.06 in Rain Light Rain
5:13 PM 44.6 °F 36.4 °F 42.8 °F 93% 29.61 in 5.0 mi South 20.7 mph 26.5 mph 0.01 in Rain Light Rain
5:34 PM 44.6 °F 36.9 °F 42.8 °F 93% 29.61 in 5.0 mi South 18.4 mph 24.2 mph 0.02 in Rain Light Rain
5:53 PM 43.0 °F 34.5 °F 41.0 °F 93% 29.57 in 6.0 mi South 19.6 mph 25.3 mph 0.03 in Rain Light Rain
6:00 PM 42.8 °F 35.1 °F 41.0 °F 93% 29.61 in 6.0 mi SSE 16.1 mph - 0.01 in Rain Light Rain
6:13 PM 44.6 °F 35.9 °F 42.8 °F 93% 29.60 in 5.0 mi SSE 23.0 mph 27.6 mph 0.02 in Rain Rain
6:43 PM 44.6 °F 37.4 °F 42.8 °F 93% 29.60 in 5.0 mi SSE 16.1 mph 25.3 mph 0.04 in Rain Light Rain
6:53 PM 44.1 °F 37.1 °F 43.0 °F 96% 29.56 in 4.0 mi SSE 15.0 mph - 0.06 in Rain Rain
7:39 PM 44.6 °F 38.4 °F 42.8 °F 93% 29.58 in 5.0 mi South 12.7 mph - 0.04 in Rain Light Rain
7:53 PM 44.1 °F 37.4 °F 43.0 °F 96% 29.54 in 5.0 mi South 13.8 mph - 0.04 in Rain Light Rain
8:03 PM 44.6 °F 38.4 °F 42.8 °F 93% 29.57 in 6.0 mi SSE 12.7 mph - 0.01 in Rain Light Rain
8:12 PM 44.6 °F 37.4 °F 42.8 °F 93% 29.57 in 7.0 mi SSE 16.1 mph - 0.01 in Rain Light Rain
8:32 PM 44.6 °F 38.1 °F 42.8 °F 93% 29.56 in 5.0 mi SSE 13.8 mph - 0.01 in Rain Light Rain
8:53 PM 44.1 °F 36.5 °F 42.1 °F 93% 29.52 in 7.0 mi SSE 17.3 mph - 0.02 in Rain Light Rain
9:01 PM 44.6 °F 37.8 °F 42.8 °F 93% 29.55 in 6.0 mi SE 15.0 mph - 0.01 in Rain Rain
9:41 PM 42.8 °F 35.8 °F 42.8 °F 100% 29.54 in 10.0 mi ESE 13.8 mph - 0.02 in Rain Light Rain
9:53 PM 43.0 °F 36.4 °F 42.1 °F 97% 29.51 in 10.0 mi ESE 12.7 mph - 0.02 in Rain Light Rain
10:35 PM 44.6 °F 38.4 °F 42.8 °F 93% 29.53 in 9.0 mi ESE 12.7 mph - 0.01 in Rain Light Rain
10:53 PM 43.0 °F 36.4 °F 42.1 °F 97% 29.49 in 10.0 mi ESE 12.7 mph - 0.02 in Rain Light Rain
11:53 PM 44.1 °F 37.4 °F 43.0 °F 96% 29.48 in 8.0 mi ESE 13.8 mph - 0.01 in Rain Light Rain